This is the latest recevied weather packets stored in our database for station/object DK0KTL-4. If no packets are shown the sender has not sent any weather packets the latest 10 day(s).
| Time | Temp. | Humidity | Pressure | Rain* | Wind** | Luminosity | Snow |
|---|---|---|---|---|---|---|---|
| 1777217615 | 15° C | 40% | 1023.9 hPa | 0 mm | - | - | - |
| 1777217015 | 15° C | 39% | 1023.9 hPa | 0 mm | - | - | - |
| 1777216414 | 15.56° C | 39% | 1023.8 hPa | 0 mm | - | - | - |
| 1777215813 | 16.11° C | 38% | 1024 hPa | 0 mm | - | - | - |
| 1777215513 | 15.56° C | 38% | 1023.9 hPa | 0 mm | - | - | - |
| 1777215213 | 15.56° C | 42% | 1024 hPa | 0 mm | - | - | - |
| 1777214012 | 16.11° C | 40% | 1023.9 hPa | 0 mm | - | - | - |
| 1777213411 | 16.11° C | 37% | 1024.1 hPa | 0 mm | - | - | - |
| 1777210709 | 16.11° C | 38% | 1024.3 hPa | 0 mm | - | - | - |
| 1777210408 | 16.11° C | 36% | 1024.3 hPa | 0 mm | - | - | - |
| 1777209808 | 16.11° C | 39% | 1024.5 hPa | 0 mm | - | - | - |
| 1777209507 | 16.11° C | 39% | 1024.4 hPa | 0 mm | - | - | - |
| 1777209207 | 16.67° C | 38% | 1024.5 hPa | 0 mm | - | - | - |
| 1777208606 | 16.11° C | 41% | 1024.4 hPa | 0 mm | - | - | - |
| 1777208006 | 16.11° C | 37% | 1024.4 hPa | 0 mm | - | - | - |
| 1777207105 | 15.56° C | 40% | 1024.4 hPa | 0 mm | - | - | - |
| 1777206805 | 15° C | 40% | 1024.5 hPa | 0 mm | - | - | - |
| 1777206504 | 15.56° C | 43% | 1024.6 hPa | 0 mm | - | - | - |
| 1777205904 | 15.56° C | 41% | 1024.6 hPa | 0 mm | - | - | - |
| 1777205303 | 15.56° C | 41% | 1024.5 hPa | 0 mm | - | - | - |
| 1777205003 | 15° C | 44% | 1024.7 hPa | 0 mm | - | - | - |
| 1777204703 | 14.44° C | 47% | 1024.7 hPa | 0 mm | - | - | - |
| 1777204402 | 13.89° C | 43% | 1024.7 hPa | 0 mm | - | - | - |
| 1777203802 | 12.78° C | 49% | 1024.7 hPa | 0 mm | - | - | - |
| 1777203502 | 12.22° C | 49% | 1024.7 hPa | 0 mm | - | - | - |
* Rain latest hour (hover to see other rain measurements)
** Current wind speed in m/s (hover to see current wind gust speed)